This is the latest recevied weather packets stored in our database for station/object DH0GMA. If no packets are shown the sender has not sent any weather packets the latest 1 day(s).
| Time | Temp. | Humidity | Pressure | Rain* | Wind** | Luminosity | Snow |
|---|---|---|---|---|---|---|---|
| 1777994187 | 17.78° C | 67% | 1006.4 hPa | 0.25 mm | 0.45 m/s, 295° | - | - |
| 1777993586 | 17.78° C | 69% | 1006.3 hPa | 1.52 mm | 0.89 m/s, 333° | - | - |
| 1777992986 | 17.78° C | 69% | 1006.5 hPa | 1.52 mm | 0.45 m/s, 297° | - | - |
| 1777992386 | 17.22° C | 72% | 1006.5 hPa | 1.52 mm | 0.45 m/s, 355° | - | - |
| 1777991786 | 17.22° C | 72% | 1006.5 hPa | 1.52 mm | 0.45 m/s, 319° | - | - |
| 1777991186 | 17.22° C | 72% | 1006.6 hPa | 1.52 mm | 0.89 m/s, 301° | - | - |
| 1777990588 | 16.67° C | 69% | 1006.7 hPa | 1.27 mm | 1.34 m/s, 202° | - | - |
| 1777989988 | 16.67° C | 70% | 1006.8 hPa | 0 mm | 0.45 m/s, 294° | - | - |
| 1777989388 | 17.22° C | 69% | 1006.7 hPa | 0 mm | 0.89 m/s, 339° | - | - |
| 1777988787 | 17.22° C | 69% | 1006.6 hPa | 0 mm | 0.89 m/s, 324° | - | - |
| 1777988187 | 17.78° C | 72% | 1006.5 hPa | 0.25 mm | 0.45 m/s, 285° | - | - |
| 1777987587 | 17.78° C | 73% | 1006.8 hPa | 0.25 mm | 0.45 m/s, 314° | - | - |
| 1777986987 | 17.78° C | 72% | 1007 hPa | 0.25 mm | 0 m/s | - | - |
| 1777986387 | 17.22° C | 73% | 1007 hPa | 0.25 mm | 0.45 m/s, 200° | - | - |
| 1777985787 | 16.67° C | 74% | 1007.1 hPa | 0.25 mm | 0.45 m/s, 195° | - | - |
| 1777985187 | 16.67° C | 75% | 1007.2 hPa | 0 mm | 0.45 m/s, 172° | - | - |
| 1777984588 | 16.67° C | 75% | 1007.2 hPa | 0 mm | 0 m/s | - | - |
| 1777983988 | 16.67° C | 76% | 1007.4 hPa | 0 mm | 0.45 m/s, 158° | - | - |
| 1777983388 | 16.67° C | 73% | 1007.5 hPa | 0 mm | 0.89 m/s, 159° | - | - |
| 1777982787 | 17.22° C | 69% | 1007.5 hPa | 0 mm | 1.79 m/s, 188° | - | - |
| 1777982187 | 17.78° C | 65% | 1007.3 hPa | 0 mm | 0.45 m/s, 132° | - | - |
| 1777981587 | 17.78° C | 64% | 1007.3 hPa | 0 mm | 0.45 m/s, 202° | - | - |
| 1777980987 | 18.33° C | 65% | 1007.1 hPa | 0 mm | 1.34 m/s, 156° | - | - |
| 1777980387 | 17.78° C | 67% | 1007.2 hPa | 0 mm | 0.45 m/s, 183° | - | - |
| 1777979788 | 17.78° C | 68% | 1006.9 hPa | 0 mm | 0.45 m/s, 292° | - | - |
* Rain latest hour (hover to see other rain measurements)
** Current wind speed in m/s (hover to see current wind gust speed)